RH
57 60 64 66 70 72 63 44 47 54 75 73 58 72 74 66 62 66 67 70 71 74 72 76 71 76 57 31 67 76 75 85 82 76 65 58 50 72 86 71 75 46 30
55 61 65 67 74 69 56 57 64 64 66 72 65 67 64 64 63 66 70 70 74 77 81 69 69 76 72 32 33 66 58 57 64 73 77 80 60 42 54 62 91 86 78
51 56 63 72 72 57 60 63 69 76 76 74 66 68 67 66 68 72 76 78 80 82 83 71 72 76 56 47 36 37 58 60 66 82 88 99 77 82 46 65 87 88 88
50 57 67 70 66 60 59 63 69 72 80 80 75 75 73 72 72 75 83 86 86 88 83 77 75 74 68 59 43 41 70 73 68 69 85 89 77 49 55 85 88 91 82
50 59 67 67 69 62 54 63 69 71 78 85 82 83 86 81 79 88 90 93 92 90 83 73 77 77 78 73 52 45 71 76 67 86 97 97 95 62 70 84 82 83 57
55 61 67 71 74 65 62 54 65 71 80 86 88 92 91 92 92 85 81 79 97 94 80 77 78 80 75 77 69 68 50 51 88 92 100 98 99 87 72 62 65 59 48
65 65 72 74 88 70 70 74 62 74 76 82 90 96 96 90 88 88 89 87 86 93 88 84 81 80 78 72 74 74 63 69 88 85 89 98 86 86 94 78 65 56 62
65 72 75 86 92 78 76 74 71 75 82 90 88 93 92 88 86 92 88 76 88 94 87 85 83 83 86 76 71 72 78 80 100 100 84 84 83 89 93 85 62 64 66
66 70 78 92 93 83 76 77 79 86 88 88 89 95 97 88 81 76 72 81 84 93 92 90 91 94 84 80 78 80 80 92 100 100 98 89 79 84 76 81 83 72 72
76 78 84 93 93 91 85 89 82 88 92 88 99 99 92 92 85 78 82 78 74 71 86 85 94 85 78 76 78 81 80 87 100 100 100 88 86 85 86 85 83 84 78
77 87 94 94 93 93 96 88 83 87 85 85 84 87 97 86 89 87 84 83 79 79 80 81 77 82 78 77 77 78 76 77 89 89 89 87 83 85 85 85 89 88 87
90 86 95 98 96 98 97 93 89 88 85 84 90 88 83 89 90 90 90 90 95 81 71 74 74 86 88 89 86 84 75 84 83 93 93 90 86 86 88 89 92 96 94
100 98 100 99 99 94 96 99 97 91 88 89 91 89 75 63 88 84 88 98 100 86 77 82 88 93 92 93 95 89 83 82 90 94 100 100 97 94 94 95 100 99 99
99 100 98 100 100 100 95 97 98 93 86 82 76 66 56 66 78 84 83 85 88 83 82 100 100 98 97 98 100 96 96 96 99 99 100 100 100 97 96 97 100 99 99
98 98 100 99 98 100 95 92 97 93 94 96 95 88 80 72 75 77 85 87 87 87 88 100 100 100 100 100 100 98 100 99 100 98 99 100 100 100 99 99 100 93 89
98 98 99 100 100 99 100 100 98 96 92 96 96 93 92 86 76 80 80 87 94 93 95 100 100 100 100 100 99 100 100 100 100 99 99 99 100 100 100 98 100 93 87
100 100 100 99 99 100 100 99 100 99 96 98 96 95 93 95 93 90 89 87 92 99 95 100 100 100 100 100 100 100 100 100 100 100 99 98 98 99 99 100 100 94 94
99 99 100 100 100 99 100 100 100 100 100 98 98 100 96 98 100 98 99 98 100 100 100 100 100 100 100 100 100 98 100 100 100 100 100 100 100 100 98 100 100 97 86
100 100 99 100 100 100 100 100 100 100 100 99 99 100 100 100 100 100 97 96 97 100 100 100 100 100 100 100 98 95 92 91 97 100 99 99 99 99 99 96 84 51 47
100 100 100 100 100 100 100 100 100 100 100 100 100 100 100 100 98 93 90 88 92 97 97 100 100 97 89 84 74 54 41 34 30 32 43 56 51 35 20 14 16 15 14
98 99 99 100 100 100 100 100 100 99 99 100 100 100 100 98 94 91 89 86 81 86 84 90 89 84 74 61 54 34 21 17 14 12 10 7 6 5 5 6 7 8 9
100 97 100 100 100 100 100 100 100 100 99 98 97 96 95 90 86 86 86 83 77 70 73 75 72 68 58 49 46 33 25 21 11 10 9 8 8 8 8 9 9 9 10
95 99 98 100 100 100 100 100 100 100 99 96 90 85 88 86 79 77 67 66 64 59 60 61 59 59 58 47 40 30 28 27 19 14 12 12 11 11 11 12 12 12 11
89 94 96 100 100 100 100 100 100 98 93 94 95 93 92 94 84 70 71 50 47 46 46 49 49 46 48 43 32 14 14 12 30 30 18 15 14 13 13 13 13 12 11
94 94 92 92 94 100 100 99 99 98 96 94 88 70 80 80 59 43 38 35 36 36 34 37 37 35 31 23 14 10 13 14 14 23 36 22 17 15 14 14 13 12 12
97 96 94 89 88 94 100 100 100 100 100 98 96 72 49 50 25 21 20 17 16 17 17 19 21 19 14 12 10 14 16 16 14 15 30 31 27 19 16 15 14 14 14
Wind_Speed
20 19 20 19 18 17 16 15 15 16 15 15 15 17 18 18 19 20 20 20 20 20 21 22 23 23 20 21 23 20 22 23 22 22 21 20 20 21 20 18 20 22 20
21 20 20 19 18 18 16 15 15 16 17 17 16 17 18 19 20 21 21 21 21 21 22 24 23 23 19 21 22 21 21 23 23 23 22 22 21 20 18 20 18 19 17
20 22 20 21 21 19 17 15 15 16 17 18 18 18 20 21 21 22 22 22 22 24 24 25 24 22 21 22 23 23 24 23 24 25 23 19 22 21 21 22 20 16 15
20 22 23 23 21 20 18 17 16 16 18 18 19 18 20 21 22 23 23 23 24 25 26 25 24 22 22 22 23 24 24 25 24 22 18 18 17 17 19 21 19 18 15
22 24 25 24 21 21 19 19 17 16 17 20 22 22 20 22 23 24 24 24 25 26 25 24 24 23 23 23 24 24 24 23 23 21 18 18 17 20 22 21 18 15 11
23 25 25 24 22 21 20 20 19 17 18 18 18 21 19 22 25 24 27 22 23 24 23 23 24 24 23 22 23 22 23 23 20 17 16 19 18 21 21 21 18 12 12
24 26 26 24 22 22 21 20 21 18 18 19 21 24 19 20 21 23 26 25 21 19 21 23 25 24 23 23 23 22 21 21 17 17 15 14 18 20 20 19 16 16 16
26 27 26 24 21 21 21 20 23 22 20 21 21 23 25 23 21 20 19 20 23 26 26 26 23 23 23 22 21 20 20 18 17 16 18 17 17 19 19 16 16 17 17
28 28 28 25 22 22 22 20 23 22 26 24 22 24 26 21 23 23 23 24 24 24 25 23 23 22 21 21 21 20 19 19 18 16 16 18 17 16 15 16 16 16 17
27 29 29 26 24 24 24 25 24 24 26 28 30 30 26 26 27 24 25 24 24 21 19 19 22 21 21 20 20 20 18 17 15 14 14 16 16 17 17 16 16 15 16
28 31 32 30 27 27 30 31 30 27 25 26 26 27 26 25 25 23 23 22 25 25 22 21 20 21 19 19 19 18 17 17 18 16 15 16 16 18 18 18 18 17 15
31 31 32 32 32 35 35 32 32 30 28 26 25 25 22 21 23 26 26 28 27 27 25 22 24 22 21 21 20 19 16 19 22 18 18 19 21 22 22 21 21 21 20
33 32 36 35 37 38 38 36 34 32 30 27 25 23 21 21 23 27 30 30 30 28 26 25 25 24 24 24 23 19 19 21 23 24 20 21 21 22 21 20 20 20 20
38 35 37 39 38 39 38 35 32 30 28 28 25 24 23 23 24 25 28 31 30 26 24 26 28 28 26 25 24 21 21 22 24 26 24 19 20 19 18 16 17 16 15
42 40 39 41 37 39 38 34 33 29 27 22 22 23 22 24 27 27 27 27 28 26 26 30 30 28 26 23 22 22 25 26 27 28 30 23 22 19 16 14 14 10 8
44 44 41 40 45 46 39 35 34 29 27 23 22 22 22 24 25 26 26 27 28 28 27 28 29 28 26 25 23 23 24 24 25 28 27 26 22 19 19 18 12 11 9
46 46 47 45 41 40 39 38 35 32 29 25 24 24 25 27 27 26 26 26 27 28 29 29 28 28 27 27 25 26 27 27 29 28 26 24 21 21 14 11 10 8 6
42 49 48 45 47 40 36 35 33 30 30 28 26 29 29 28 27 26 25 26 27 28 29 32 31 31 30 28 28 26 24 26 26 26 25 21 20 16 14 14 11 6 4
35 46 50 48 47 42 39 37 35 34 31 29 31 31 31 30 28 26 24 22 22 29 28 30 32 30 30 28 27 28 26 24 23 22 21 18 15 13 11 13 11 9 7
29 39 47 47 44 43 40 36 34 32 32 32 32 32 32 32 29 25 23 22 24 27 27 28 28 29 30 30 28 25 22 21 20 20 19 18 15 13 11 10 9 10 10
22 30 39 46 44 43 40 38 37 35 35 35 33 34 34 32 31 28 26 25 26 29 28 29 32 33 33 31 30 24 20 18 18 17 17 16 15 14 12 11 10 10 9
17 23 31 40 42 40 41 42 40 39 38 36 36 36 35 33 32 31 30 30 30 32 34 36 36 34 32 31 26 24 14 13 16 17 17 17 16 15 14 12 12 11 10
11 17 25 33 38 40 40 40 40 39 38 38 37 36 36 34 33 31 31 32 33 34 36 36 37 36 37 35 30 17 11 8 19 16 18 18 17 16 14 13 11 10 9
7 13 21 27 31 35 35 33 32 35 37 38 38 37 37 36 34 33 32 32 33 35 36 37 37 36 35 35 33 22 19 15 11 13 18 19 19 17 16 13 12 10 9
4 9 16 22 25 29 30 29 29 31 33 33 35 33 36 36 34 34 35 36 36 36 37 37 38 36 33 34 34 28 20 16 18 15 17 22 21 18 17 15 13 11 9
2 5 11 16 19 22 25 26 26 26 26 24 27 28 29 34 34 35 35 34 33 34 34 34 34 34 32 33 33 26 20 19 21 18 14 23 19 19 17 15 13 12 11
Wind_Direction
188 182 186 190 192 188 186 180 179 178 180 174 174 174 170 168 165 165 162 160 155 152 149 143 140 134 137 136 130 131 135 135 132 128 122 121 127 122 111 100 98 95 97
189 187 189 191 188 185 184 181 179 180 180 178 175 176 175 170 167 167 168 164 162 157 152 144 140 138 138 133 134 134 134 137 134 126 122 118 118 124 124 110 109 96 89
186 188 190 183 181 184 183 182 184 185 182 179 178 179 177 173 169 166 166 163 160 156 151 146 143 144 135 131 132 132 130 130 134 130 123 117 117 115 112 117 112 101 91
188 184 182 180 183 184 183 182 184 184 186 182 175 175 178 174 167 163 162 161 157 152 148 145 145 142 139 134 132 133 130 130 130 121 115 117 121 129 125 120 116 113 98
190 182 179 181 187 183 183 183 183 183 184 186 184 167 178 171 165 157 154 153 153 149 147 145 144 142 142 137 132 133 134 132 130 116 122 120 118 120 125 129 123 109 90
188 189 186 186 188 185 185 184 183 186 179 180 181 163 172 162 155 158 156 163 151 149 150 149 150 146 143 141 136 132 133 132 114 121 121 125 135 130 129 129 123 110 96
188 190 187 187 187 189 192 192 187 188 180 182 170 160 162 156 149 154 159 162 167 155 150 152 150 147 141 139 137 134 134 129 122 120 120 126 135 136 130 128 121 109 104
191 188 187 186 190 190 189 187 186 187 180 176 179 173 168 162 159 155 155 154 154 157 156 155 151 144 143 144 141 140 140 134 123 123 131 129 127 136 130 121 114 108 107
193 189 186 185 189 188 186 182 184 185 182 174 165 167 166 159 169 166 157 155 152 150 150 150 150 150 150 147 142 142 144 133 123 123 124 136 140 135 130 121 116 115 114
193 190 186 188 190 190 187 185 184 180 180 181 175 170 168 164 165 164 158 157 157 158 163 164 157 156 152 147 145 144 144 130 116 118 128 135 142 141 136 131 125 121 117
197 190 187 187 189 184 185 187 183 182 177 176 182 186 178 181 185 180 172 166 166 168 173 173 164 158 157 153 149 150 155 143 135 131 136 140 139 139 134 129 125 124 125
202 194 190 191 187 187 187 187 185 181 182 181 175 171 180 185 179 174 173 168 163 175 179 181 168 163 158 151 150 154 150 139 136 125 128 132 129 133 132 128 124 120 118
198 193 192 195 194 194 189 188 184 185 187 189 191 196 198 192 183 176 177 176 175 184 178 169 170 169 167 163 161 165 157 149 138 128 126 127 132 127 126 132 131 126 128
198 195 198 194 198 195 194 191 190 190 190 186 186 186 184 185 187 186 186 187 190 191 182 177 178 177 175 172 170 167 164 157 144 132 125 140 132 130 134 140 141 149 148
203 198 198 202 205 198 198 197 195 197 189 186 188 186 186 184 186 186 187 190 191 191 190 182 182 181 182 181 179 172 158 154 152 147 135 140 134 147 143 143 131 147 169
209 205 201 193 201 204 201 200 198 199 201 201 197 194 190 192 190 190 192 192 193 190 195 192 186 186 184 180 174 172 167 167 169 163 163 153 151 148 141 121 142 176 184
212 208 205 204 196 193 195 201 198 202 204 205 205 204 200 195 191 194 196 198 199 193 190 191 187 186 186 177 177 173 169 163 161 172 174 172 175 160 164 142 145 171 180
218 212 210 202 202 202 195 198 199 203 205 209 214 208 205 202 197 199 201 205 204 201 191 190 189 184 183 178 173 169 155 154 156 161 167 172 169 172 187 149 135 169 206
225 220 215 210 208 206 205 206 209 213 220 218 215 209 205 201 204 202 201 204 204 203 197 198 186 189 181 171 169 167 166 164 165 164 167 174 180 181 186 209 219 205 175
232 225 223 216 212 211 213 212 213 215 216 211 208 206 208 202 201 201 202 206 204 199 199 192 188 174 174 172 170 167 166 168 171 175 179 188 192 193 188 175 174 181 181
231 233 227 226 217 216 215 215 214 216 211 207 204 206 204 201 202 200 206 206 204 196 195 190 185 185 180 179 174 162 158 163 167 170 173 176 176 175 175 170 164 154 152
228 235 228 231 226 218 219 217 215 209 209 208 208 209 206 203 202 200 203 205 204 197 192 191 195 191 186 179 179 167 147 156 164 167 166 169 172 172 172 170 166 162 161
229 234 234 232 229 220 216 214 210 206 205 208 207 207 205 202 201 201 201 204 204 201 200 199 199 204 195 188 185 174 156 167 172 171 173 172 173 174 174 174 172 172 173
250 236 239 239 233 224 219 215 212 206 203 205 208 208 207 204 202 200 201 202 203 202 202 202 202 202 204 197 191 190 188 190 168 174 183 182 179 180 183 184 184 187 191
299 253 243 241 233 227 223 220 219 216 212 207 201 201 202 199 196 198 199 200 202 204 204 205 202 202 203 201 197 194 192 187 186 176 181 191 190 189 190 192 195 197 201
342 256 245 243 234 226 223 222 222 225 223 218 204 200 198 195 193 197 197 199 200 204 204 205 206 205 207 204 204 202 204 196 196 195 176 190 191 196 199 200 203 205 207